星链-6149 (STARLINK-6149 )

导读

STARLINK-6149是美国太空探索技术公司(SpaceX)星链星座的一员,于2023年6月23日发射入轨。星链计划旨在搭建全球卫星互联网星座,为全球提供高速低延迟互联网服务,该卫星承担着扩展星座覆盖范围、提升星座服务容量与稳定性的任务。

Basic Information
目录编号:
57122
目录名称:
STARLINK-6149
国际标识:
2023-090X
轨道中心:
EARTH
卫星名称:
星链-6149
卫星全名:
星链-6149 (STARLINK-6149 )
卫星状态:
在轨 (已飞行1088 天)
发射日期:
2023-06-23 UTC
国别 :
美国 (US)
星等 :
--
Orbit Information
数据来源 国际轨道数据 AOE轨道数据
星历时间 2026-06-14T19:51:14+0800
12小时前
查看轨道信息
2026-06-11T01:00:00+0800
4天前
查看轨道信息
半长轴 6861.21km 6861.181km
偏心率 0.0000859 0.0001108
轨道倾角 43.010° 43.000°
近地点辐角 248.772° 232.594°
升交点赤经 95.161° 116.547°
平近点角 111.304° 165.109°
近地点 482.483km 482.283km
远地点 483.663km 483.805km
周期 94.267分钟 94.267分钟
每日圈数 15.275723 15.27582
Detailed Information
固有亮度:
5
最大亮度:
2.4
卫星平台:
Starlink v1.5
覆盖范围:
全球
运营商:
太空探索技术公司
运营商所在国:
美国
制造商(研发单位):
太空探索技术公司
制造商所在国:
美国
使用方式:
暂无
Satellite Introduction
星链(Starlink)计划是由太空探索技术公司(SpaceX)提出的一个巨型低轨卫星互联网星座项目,计划在2019年至2024年间在太空搭建由约1.2万颗卫星组成的“星链”网络,其中1584颗将部署在地球上空550千米处的近地轨道,并从2020年开始工作。该卫星仍在工作。
2D Orbit Map
3D Orbit Map
Orbit Altitude Analysis Chart
Orbit Inclination Analysis Chart
Orbit Comprehensive Analysis Chart
View Comprehensive Chart